Home > Weather > Guildford > Past weeks

Flag for United Kingdom Weather for the Past 2 Weeks in Guildford, England, United Kingdom

Now
41 °F

Clear.


Feels Like: 33 °F
Forecast: 35 / 52 °F
Wind: 14 mph from Southwest

Location: Odiham

Current Time: Apr 29, 2016 at 5:13:54 AM

Latest Report: Apr 29, 2016 at 3:50 AM


Visibility: 10 mi

Pressure: 29.80 "Hg

Humidity: 76%

Dew Point: 34 °F

Location of GuildfordLocation

Historic Weather in Guildford — Graph

°F

Guildford Temperature Yesterday

Maximum temperature yesterday: 50 °F (at 12:50 PM)
Minimum temperature yesterday: 32 °F (at 3:50 AM)
Average temperature yesterday: 43 °F

High & Low Weather Summary for the Past Weeks

 TemperatureHumidityPressure
High63 °F (Apr 21, 2:50 PM)100% (Apr 15, 12:50 AM)30.42 "Hg (Apr 15, 12:50 AM)
Low32 °F (Apr 28, 3:50 AM)34% (Apr 26, 3:50 PM)29.42 "Hg (Apr 15, 5:50 PM)
Average45 °F72%29.98 "Hg
* Reported Apr 14 2:50 AM — Apr 29 2:50 AM, Guildford, Weather by CustomWeather, © 2016

Note: Actual official high and low records may vary slightly from our data, if they occured in-between our weather recording intervals... More about our weather records

Advertising

Guildford Weather History for the Previous 24 Hours

Scroll right to see more
 ConditionsComfort  
Time TempWeatherWind HumidityBarometerVisibility
2:50 AM
Fri, Apr 29
43 °FClear.15 mph71%29.80 "Hg10 mi
11:50 PM
Thu, Apr 28
45 °FSprinkles. Passing clouds.21 mph81%29.80 "HgN/A
10:50 PM45 °FClear.18 mph81%29.80 "Hg10 mi
9:50 PM46 °FPassing clouds.17 mph82%29.80 "HgN/A
8:50 PM46 °FSprinkles. Partly sunny.15 mph82%29.83 "HgN/A
7:50 PM48 °FPartly sunny.15 mph66%29.83 "HgN/A
6:50 PM48 °FPartly sunny.22 mph62%29.86 "HgN/A
5:50 PM50 °FSunny.21 mph54%29.86 "Hg10 mi
4:50 PM50 °FPartly sunny.20 mph54%29.86 "HgN/A
3:50 PM50 °FBroken clouds.20 mph54%29.89 "HgN/A
2:50 PM50 °FPartly sunny.15 mph43%29.92 "HgN/A
1:50 PM48 °FSunny.15 mph40%29.92 "Hg10 mi
12:50 PM50 °FScattered clouds.14 mph35%29.92 "HgN/A
11:50 AM48 °FPassing clouds.13 mph37%29.95 "HgN/A
10:50 AM46 °FPassing clouds.8 mph40%29.95 "HgN/A
9:50 AM43 °FPassing clouds.10 mph53%29.95 "HgN/A
8:50 AM41 °FSunny.5 mph66%29.98 "Hg10 mi
7:50 AM37 °FSunny.6 mph81%29.98 "Hg10 mi
6:50 AM32 °FSunny.7 mph93%29.95 "Hg10 mi
5:50 AM32 °FPassing clouds.6 mph93%29.95 "HgN/A
Weather by CustomWeather, © 2016

See weather overviewHow to use our weather pages